Regional Weather Roundup
Issued by NWS

Home | Current Version | Previous Version | Graphics & Text | Print | Product List | Glossary On
Versions: 1 2 3 4 5 6 7 8 9 10 11 12 13 14 15 16 17 18 19 20 21 22 23 24 25 26 27 28 29 30 31 32 33 34 35 36 37 38 39 40 41 42 43 44 45 46 47 48 49 50
000
ASUS43 KFSD 280510
RWRSD

WEATHER ROUNDUP FOR SOUTH DAKOTA
NATIONAL WEATHER SERVICE SIOUX FALLS SD
1200 AM CDT WED SEP 28 2016

NOTE: "FAIR" INDICATES FEW OR NO CLOUDS BELOW 12,000 FEET WITH NO
SIGNIFICANT WEATHER AND/OR OBSTRUCTIONS TO VISIBILITY.


SDZ001>005-009-010-012>017-280600-
NORTHWEST AND NORTH CENTRAL SOUTH DAKOTA

CITY           SKY/WX    TMP DP  RH WIND       PRES   REMARKS
BUFFALO          N/A     58  47  66 W7        30.00R
FAITH            N/A     58  43  57 SE9       30.04R
MOBRIDGE       CLEAR     48  40  73 CALM      30.00R
$$

SDZ012>016-024>037-041>051-057-063-072>074-280600-
SOUTHWEST AND SOUTH CENTRAL SOUTH DAKOTA

CITY           SKY/WX    TMP DP  RH WIND       PRES   REMARKS
RAPID CTY ARPT CLEAR     57  42  57 NW13      30.08R
PIERRE         CLEAR     52  41  66 NE7       30.00R
CUSTER         CLEAR     52  35  52 NW6       30.22R
ELLSWORTH AFB  CLEAR     62  42  48 NW10      30.08R
PHILIP         CLEAR     49  42  77 CALM      30.03R
PINE RIDGE     CLEAR     48  42  80 CALM      30.08R
WINNER         FAIR      53  45  74 SW3       30.01R HAZE
$$

SDZ004>011-016>023-039-040-280600-
NORTHEAST SOUTH DAKOTA

CITY           SKY/WX    TMP DP  RH WIND       PRES   REMARKS
ABERDEEN       CLOUDY    44  36  73 NE5       30.02R
WATERTOWN      CLEAR     44  39  82 N6        29.99R
BROOKINGS      CLEAR     43  38  82 N5        29.97R
SISSETON         N/A     46  42  86 N6        30.00R
$$

SDZ017-020-022-023-036>040-048>070-280600-
SOUTHEAST SOUTH DAKOTA

CITY           SKY/WX    TMP DP  RH WIND       PRES   REMARKS
SIOUX FALLS    CLEAR     52  36  54 N8        29.95R
HURON          CLOUDY    43  38  82 N3        29.98R
CHAMBERLAIN    CLEAR     58  43  56 NE5       29.98S
MITCHELL       CLEAR     49  40  71 NW6       29.97R
YANKTON        CLEAR     52  43  71 N8        29.94R
$$

ABBREVIATIONS USED IN REMARKS
   TC - TEMPERATURE IN CELSIUS
  WCI - WIND CHILL INDEX
   HX - HEAT INDEX
  VSB - VISIBILITY




USA.gov is the U.S. government's official web portal to all federal, state and local government web resources and services.